Regional Weather Roundup
Issued by NWS Mobile, AL

Home | Current Version | Previous Version | Text Only | Print | Product List | Glossary On
Versions: 1 2 3 4 5 6 7 8 9 10 11 12 13 14 15 16 17 18 19 20 21 22 23 24 25 26 27 28 29 30 31 32 33 34 35 36 37 38 39 40 41 42 43 44 45 46 47 48 49 50
000
ASUS44 KMOB 021816
RWRMOB
REGIONAL WEATHER ROUNDUP
NATIONAL WEATHER SERVICE MOBILE AL
100 PM CDT WED SEP 02 2015

ALZ061>064-021900-
COASTAL ALABAMA


CITY           SKY/WX    TMP DP  RH WIND       PRES   REMARKS
MOBILE REG APT PTSUNNY   90  67  46 S8        30.07F
6HR MIN TEMP:  72; 6HR MAX TEMP:  92;

BROOKLEY FIELD FAIR      89  67  47 SE9       30.07F
6HR MIN TEMP:  72; 6HR MAX TEMP:  91;

GULF SHORES    FAIR      89  71  55 SE7       30.06F HX  95
6HR MIN TEMP:  71; 6HR MAX TEMP:  90;


$$

ALZ051>060-021900-
INTERIOR SOUTHWEST AND SOUTH CENTRAL ALABAMA


CITY           SKY/WX    TMP DP  RH WIND       PRES   REMARKS
ANDALUSIA/OPP  MOSUNNY   95  65  37 CALM      30.05F HX  97
6HR MIN TEMP:  75; 6HR MAX TEMP:  98;

EVERGREEN      FAIR      94  65  38 CALM      30.05F HX  96
6HR MIN TEMP:  69; 6HR MAX TEMP:  95;

FLORALA        PTCLDY    93  67  42 CALM      30.07F HX  96
6HR MIN TEMP:  72; 6HR MAX TEMP:  93;

GREENVILLE     FAIR      94  67  41 N5        30.06F HX  97
6HR MIN TEMP:  71; 6HR MAX TEMP:  94;


$$

FLZ001>006-021900-
WESTERN FLORIDA PANHANDLE


CITY           SKY/WX    TMP DP  RH WIND       PRES   REMARKS
CRESTVIEW      PTSUNNY   93  68  43 VRB5      30.06F HX  97
6HR MIN TEMP:  70; 6HR MAX TEMP:  94;

DESTIN         SUNNY     90  72  55 SW7       30.05F HX  97
6HR MIN TEMP:  78; 6HR MAX TEMP:  92;

DUKE FIELD     MOSUNNY   94  65  38 NW7       30.03F HX  96
6HR MIN TEMP:  71; 6HR MAX TEMP:  94;

MARY ESTHER    NOT AVBL
MILTON         MOCLDY    94  66  39 CALM      30.05F HX  97
6HR MIN TEMP:  71; 6HR MAX TEMP:  96;

PENSACOLA      FAIR      91  67  44 VRB5      30.05F
6HR MIN TEMP:  73; 6HR MAX TEMP:  91;

NAS PENSACOLA  PTSUNNY   91  67  44 S9        30.05F
6HR MIN TEMP:  70; 6HR MAX TEMP:  92;

VALPARAISO     PTSUNNY   92  70  48 S12       30.04F HX  98
6HR MIN TEMP:  74; 6HR MAX TEMP:  93;


$$

...MARINE OBSERVATIONS...

STATION/POSITION TIME  SKY/WX   TEMP    WIND        PRES    VSBY
                                AIR SEA DIR/SP/G
                 (UTC)          (F)     (DEG/KT/KT) (MB)    (MI)
PASCAGOULA       1700            85     160/  9/ 10 1018.4F
PETIT BOIS ISL   1700            86      80/  3/  5 1019.3R
E DAUPHIN ISLAND 1800            84     150/  4/  5 1017.9F
MIDDLE BAY LIGHT 1700                      CALM     1018.3R
USCG MOBILE BAY  1700            86 85  130/  5/  7 1017.4F
STATE DOCKS      1700            90 85              1018.0F
MEAHER PARK      1800            88     210/  7     1016.6F
FORT MORGAN      1700            85      10/  3/  5 1018.2F
12 S ORANGE BCH  1750            84 87  360/  2/  2 1017.7F
WVE H/P(F/S)=  1/ 5

PENSACOLA BAY    1700            89 85  180/  4/  5 1018.3F
64 S DAUPHIN ISL 1750            84 87  110/  8/ 10 1018.5F
WVE H/P(F/S)=  1/ 5

115 SE PENSACOLA 1750            85 89   70/  2/  2 1018.6F
WVE H/P(F/S)=  1/ 6

MID GULF/42001   1800            80 85  180/ 12/ 16 1017.1F
EAST GULF/42003  1750            81 86   60/  4/  6 1017.6F
WVE H/P(F/S)=  1/ 4


$$

...NEARBY LOCATIONS

CITY           SKY/WX    TMP DP  RH WIND       PRES   REMARKS
GULFPORT       FAIR      87  69  54 S8        30.06F
6HR MIN TEMP:  77; 6HR MAX TEMP:  90;

BILOXI         FAIR      86  74  67 S8        30.06F HX  95
6HR MIN TEMP:  76; 6HR MAX TEMP:  90;

PASCAGOULA     FAIR      88  72  58 S8        30.06F
6HR MIN TEMP:  69; 6HR MAX TEMP:  91;

HATTIESBURG    FAIR      92  64  39 VRB7      30.07F
6HR MIN TEMP:  73; 6HR MAX TEMP:  94;

LAUREL         PTSUNNY   91  64  40 SW5       30.08F
6HR MIN TEMP:  70; 6HR MAX TEMP:  93;

MERIDIAN       FAIR      89  69  51 SE3       30.06F
6HR MIN TEMP:  72; 6HR MAX TEMP:  90;

MERIDIAN NAS   PTSUNNY   91  72  53 VRB3      30.06F HX  98
6HR MIN TEMP:  72; 6HR MAX TEMP:  91;

MONTGOMERY     MOSUNNY   96  68  39 VRB3      30.05F HX 101
6HR MIN TEMP:  74; 6HR MAX TEMP:  96;

MAXWELL AFB    MOSUNNY   91  69  49 VRB1      30.05F HX  96
6HR MIN TEMP:  74; 6HR MAX TEMP:  91;

TROY           CLOUDY    91  70  49 N10       30.07F HX  96
6HR MIN TEMP:  69; 6HR MAX TEMP:  94;

FORT RUCKER    MOSUNNY   93  66  40 CALM      30.03F HX  96
6HR MIN TEMP:  70; 6HR MAX TEMP:  95;

DALEVILLE      PTSUNNY   91  69  47 N10       30.04F HX  96
6HR MIN TEMP:  72; 6HR MAX TEMP:  92;

DOTHAN         SUNNY     91  70  49 CALM      30.09F HX  96
6HR MIN TEMP:  73; 6HR MAX TEMP:  92;


$$

...OTHER SURROUNDING LOCATIONS...

CITY           SKY/WX    TMP DP  RH WIND       PRES   REMARKS
BIRMINGHAM     PTSUNNY   88  69  53 VRB3      30.10F
6HR MIN TEMP:  73; 6HR MAX TEMP:  90;

TUSCALOOSA     PTSUNNY   90  69  50 E3        30.06F
6HR MIN TEMP:  73; 6HR MAX TEMP:  91;

COLUMBUS GA    CLOUDY    89  66  46 CALM      30.05F
6HR MIN TEMP:  73; 6HR MAX TEMP:  90;

PANAMA CITY    NOT AVBL
TALLAHASSEE    PTSUNNY   91  72  53 VRB6      30.03F HX  98
6HR MIN TEMP:  78; 6HR MAX TEMP:  92;

BATON ROUGE    FAIR      85  72  65 NE6       30.06F
6HR MIN TEMP:  76; 6HR MAX TEMP:  88; 6HR PCP: TRACE;

NEW ORLEANS    TSTM      78  73  84 S12       30.09S
6HR MIN TEMP:  78; 6HR MAX TEMP:  85; 6HR PCP:  0.08;

SLIDELL        FAIR      87  75  67 S9        30.07S HX  96
6HR MIN TEMP:  73; 6HR MAX TEMP:  89;

JACKSON        CLOUDY    85  72  65 CALM      30.07F
6HR MIN TEMP:  73; 6HR MAX TEMP:  85;

MCCOMB         FAIR      86  71  60 VRB3      30.07F
6HR MIN TEMP:  72; 6HR MAX TEMP:  86;


$$

...SURROUNDING MARINE OBSERVATIONS...

STATION/POSITION TIME  SKY/WX   TEMP    WIND        PRES    VSBY
                                AIR SEA DIR/SP/G
                 (UTC)          (F)     (DEG/KT/KT) (MB)    (MI)
WAVELAND         1700            83 87  160/  9/ 10 1019.0S
PASCAGOULA RGN A 1700            89     170/  4/  8 1018.1R
PASCAGOULA PORT  1700               86                N/A
GRAND ISLE       1700            83 86  110/  5/  9 1018.9F
SOUTHWEST PASS   1800                                 N/A
PILOT STATION E  1700            89 86   80/  9/ 12 1018.5F
SHELL BEACH      1700            83 86  120/  8/  9 1018.3R
PANAMA CITY      1700            85 86  230/ 11/ 11 1017.3F
APALACHICOLA     1700            83 85  190/  5/  6 1017.9F
TYNDALL TOWER C  1800            83      CALM  /  1 1017.6F
S APLCHCLA/42036 1750            85 88  260/  2/  4 1018.1F
WVE H/P(F/S)=  1/ 4


$$



USA.gov is the U.S. government's official web portal to all federal, state and local government web resources and services.